Вернуться в каталог

STARLINK-32580

АктивенСвязьVLEO
NORAD 62075·PAYLOAD·🇺🇸 United States

Запущен Nov 24, 2024 с Vandenberg Space Force Base

Loading…

Ближайшие Пролёты (ближайшие 24 часа)

TLE

СвежийSource: CelesTrak SupGP

Эпоха: Sep 14, 2026, 20:34 UTC

1 62075C 24217U   26257.85743056  .00043266  00000+0  12789-2 0  2572
2 62075  53.1608  21.9775 0001269  80.5154 165.1273 15.34353963    15

Отслеживайте STARLINK-32580 в реальном времени с AllMySat

Download on the App Store